{"data":{"norad_id":53568,"intl_designator":"2022-101AT","name":"STARLINK-4583","alt_names":[],"object_type":"PAYLOAD","status":"ACTIVE","operator":null,"country":"US","launch_date":"2022-08-19","launch_site_code":"AFETR","launch_vehicle":null,"mission":null,"orbit_class":"UNKNOWN","rcs_meters":null,"size_class":null,"mass_kg":null,"dimensions":null,"purposes":["comms"],"wikipedia_slug":null,"has_3d_model":false,"image_url":null,"decayed_at":null,"tle_current":{"epoch":"2026-09-20T14:17:47.015520Z","epoch_age_seconds":70759,"freshness":"FRESH","line1":"1 53568U 22101AT  26263.59568305 -.00000269  00000+0  31625-5 0  9992","line2":"2 53568  53.1585 243.4610 0001247  96.0545 264.0600 15.34385510226776","mean_motion":15.3438551,"eccentricity":0.0001247,"inclination_deg":53.1585,"raan_deg":243.461,"arg_perigee_deg":96.0545,"mean_anomaly_deg":264.06,"bstar":3.1625e-6,"rev_number":22677,"period_min":93.8486443345,"perigee_km":461.89324973116,"apogee_km":463.59936602815,"semimajor_km":6840.8833078797,"source":"CELESTRAK","updated_at":"2026-09-21T09:00:32.930060Z"}}}